Total_Precipitation_Accumulation
0.04 0.02 0.02 0.01 0.01 0.01 0.00 0.00 0.00 0.00 -0.01 -0.03 -0.10 -0.19 -0.19 -0.19 -0.25 -0.21 -0.21 -0.16 -0.13 -0.14 -0.14 -0.10 -0.05 -0.02 -0.02 -0.02 -0.03 -0.03 -0.03 -0.04 -0.04 -0.04 -0.04 -0.01 0.00 0.00 0.00 0.01 -0.04 -0.13 -0.13 -0.18 -0.17 -0.17 -0.13 -0.14 -0.16 -0.16 -0.07 -0.02 0.02 0.08 0.08 0.10 0.11 0.13 0.13 0.18 0.37 0.43 0.43 0.47 0.47 0.47 0.48 0.65 0.80
0.06 0.04 0.04 0.01 0.01 0.01 0.01 0.01 0.00 0.00 -0.02 -0.04 -0.14 -0.23 -0.23 -0.24 -0.25 -0.20 -0.20 -0.15 -0.11 -0.10 -0.10 -0.09 -0.04 -0.02 -0.02 -0.01 -0.02 -0.02 -0.03 -0.04 -0.04 -0.05 -0.05 -0.01 0.00 0.00 0.00 0.01 -0.03 -0.13 -0.13 -0.19 -0.16 -0.16 -0.11 -0.06 -0.06 -0.06 -0.05 -0.02 0.03 0.06 0.06 0.10 0.11 0.15 0.15 0.23 0.39 0.50 0.50 0.54 0.55 0.55 0.59 0.64 0.84
0.05 0.04 0.04 0.02 0.01 0.01 0.01 0.01 0.01 0.01 -0.03 -0.08 -0.17 -0.28 -0.28 -0.29 -0.24 -0.18 -0.18 -0.14 -0.10 -0.07 -0.07 -0.08 -0.04 -0.02 -0.02 -0.01 -0.01 -0.01 -0.03 -0.02 -0.03 -0.05 -0.05 -0.01 -0.00 -0.00 -0.00 0.00 -0.03 -0.13 -0.13 -0.21 -0.18 -0.18 -0.10 -0.05 -0.05 -0.05 -0.04 -0.01 0.03 0.07 0.07 0.08 0.10 0.19 0.19 0.28 0.42 0.53 0.53 0.55 0.64 0.64 0.71 0.74 0.86
0.03 0.03 0.03 0.02 0.02 0.02 0.02 0.02 0.00 0.00 -0.05 -0.10 -0.22 -0.32 -0.32 -0.31 -0.24 -0.18 -0.18 -0.13 -0.09 -0.06 -0.06 -0.06 -0.04 -0.01 -0.01 -0.00 -0.00 -0.00 -0.04 -0.04 -0.04 -0.04 -0.04 -0.03 -0.01 -0.01 -0.01 -0.01 -0.03 -0.07 -0.07 -0.21 -0.18 -0.18 -0.09 -0.06 -0.05 -0.05 -0.02 0.00 0.05 0.06 0.06 0.07 0.14 0.26 0.26 0.40 0.45 0.46 0.46 0.53 0.64 0.64 0.72 0.73 0.67
0.01 0.02 0.02 0.02 0.02 0.02 0.03 0.02 0.00 0.00 -0.07 -0.16 -0.29 -0.38 -0.38 -0.34 -0.26 -0.18 -0.18 -0.12 -0.08 -0.05 -0.05 -0.04 -0.03 -0.00 -0.00 -0.00 0.00 0.00 -0.05 -0.06 -0.07 -0.05 -0.05 -0.03 -0.03 -0.02 -0.02 -0.03 -0.04 -0.08 -0.08 -0.19 -0.17 -0.17 -0.11 -0.08 -0.05 -0.05 -0.01 0.03 0.06 0.07 0.07 0.06 0.16 0.29 0.29 0.42 0.46 0.41 0.41 0.43 0.59 0.59 0.68 0.69 0.65
0.00 0.01 0.01 0.02 0.03 0.03 0.03 0.01 -0.01 -0.01 -0.12 -0.22 -0.33 -0.40 -0.40 -0.37 -0.26 -0.18 -0.18 -0.11 -0.08 -0.04 -0.04 -0.02 -0.02 0.03 0.03 0.02 0.01 0.01 -0.05 -0.08 -0.09 -0.05 -0.05 -0.04 -0.04 -0.05 -0.05 -0.07 -0.10 -0.10 -0.10 -0.11 -0.18 -0.18 -0.15 -0.10 -0.06 -0.06 -0.03 0.05 0.07 0.08 0.08 0.10 0.13 0.29 0.29 0.41 0.47 0.39 0.39 0.42 0.65 0.65 0.76 0.76 0.73
-0.00 0.00 0.00 0.02 0.03 0.03 0.03 -0.00 -0.04 -0.04 -0.16 -0.26 -0.32 -0.38 -0.38 -0.36 -0.23 -0.16 -0.16 -0.10 -0.06 -0.03 -0.03 -0.02 0.01 0.07 0.07 0.03 0.02 0.02 -0.01 -0.09 -0.09 -0.06 -0.06 -0.05 -0.07 -0.07 -0.07 -0.09 -0.11 -0.11 -0.11 -0.08 -0.15 -0.15 -0.14 -0.10 -0.06 -0.06 -0.02 0.05 0.09 0.09 0.09 0.11 0.13 0.17 0.17 0.36 0.49 0.44 0.44 0.48 0.61 0.61 0.93 0.92 0.78
0.00 0.00 0.00 0.02 0.04 0.04 0.03 -0.01 -0.08 -0.08 -0.20 -0.26 -0.33 -0.35 -0.35 -0.31 -0.21 -0.14 -0.14 -0.08 -0.05 -0.02 -0.02 -0.02 0.02 0.10 0.10 0.04 0.02 0.02 -0.01 -0.09 -0.08 -0.07 -0.07 -0.06 -0.11 -0.07 -0.07 -0.09 -0.10 -0.08 -0.08 -0.05 -0.14 -0.14 -0.12 -0.10 -0.05 -0.05 -0.00 0.04 0.09 0.09 0.09 0.10 0.12 0.17 0.17 0.33 0.47 0.55 0.55 0.59 0.72 0.72 0.87 1.01 0.66
0.01 -0.01 -0.01 0.02 0.02 0.02 -0.01 -0.04 -0.09 -0.09 -0.22 -0.25 -0.33 -0.33 -0.33 -0.27 -0.18 -0.12 -0.12 -0.08 -0.03 -0.01 -0.01 -0.01 0.05 0.13 0.13 0.03 0.00 0.00 -0.02 -0.08 -0.07 -0.06 -0.06 -0.07 -0.14 -0.08 -0.08 -0.08 -0.09 -0.05 -0.05 -0.04 -0.02 -0.02 -0.11 -0.09 -0.03 -0.03 0.02 0.04 0.07 0.09 0.09 0.12 0.15 0.20 0.20 0.25 0.41 0.58 0.58 0.72 0.81 0.81 0.92 0.86 0.47
-0.01 -0.02 -0.02 -0.04 -0.06 -0.06 -0.09 -0.07 -0.13 -0.13 -0.21 -0.24 -0.35 -0.31 -0.31 -0.25 -0.11 -0.08 -0.08 -0.05 -0.02 -0.01 -0.01 -0.01 0.09 0.16 0.16 0.03 -0.02 -0.02 -0.04 -0.07 -0.06 -0.06 -0.06 -0.10 -0.12 -0.12 -0.12 -0.06 -0.07 -0.02 -0.02 -0.02 -0.01 -0.01 -0.11 -0.09 -0.01 -0.01 0.04 0.04 0.04 0.10 0.10 0.14 0.19 0.25 0.25 0.27 0.31 0.54 0.54 0.81 0.91 0.91 0.91 0.74 0.52
-0.04 -0.03 -0.03 -0.07 -0.10 -0.10 -0.15 -0.14 -0.17 -0.17 -0.20 -0.24 -0.35 -0.27 -0.27 -0.21 -0.09 -0.06 -0.06 -0.03 -0.02 -0.01 -0.01 -0.00 0.13 0.17 0.17 0.02 -0.03 -0.03 -0.04 -0.04 -0.06 -0.08 -0.08 -0.12 -0.12 -0.10 -0.10 -0.04 -0.04 -0.00 -0.00 0.02 0.01 0.01 -0.04 -0.09 0.00 0.00 0.05 0.05 0.05 0.07 0.07 0.15 0.25 0.27 0.27 0.29 0.30 0.51 0.51 0.76 0.91 0.91 0.89 0.60 0.36
-0.05 -0.07 -0.07 -0.10 -0.17 -0.17 -0.22 -0.18 -0.18 -0.18 -0.21 -0.24 -0.32 -0.25 -0.25 -0.19 -0.13 -0.04 -0.04 -0.03 -0.02 -0.00 -0.00 0.01 0.15 0.16 0.16 0.02 -0.02 -0.02 -0.05 -0.08 -0.07 -0.10 -0.10 -0.13 -0.12 -0.07 -0.07 -0.03 -0.00 0.01 0.01 0.02 0.01 0.01 -0.02 -0.08 -0.00 -0.00 0.05 0.06 0.08 0.08 0.08 0.18 0.29 0.28 0.28 0.28 0.30 0.37 0.37 0.64 0.79 0.79 0.79 0.44 0.26
-0.05 -0.08 -0.08 -0.13 -0.26 -0.26 -0.30 -0.19 -0.18 -0.18 -0.21 -0.25 -0.28 -0.22 -0.22 -0.19 -0.11 -0.03 -0.03 -0.01 -0.01 0.01 0.01 0.01 0.15 0.12 0.12 0.01 -0.04 -0.04 -0.07 -0.10 -0.12 -0.15 -0.15 -0.14 -0.10 -0.04 -0.04 -0.03 0.01 -0.01 -0.01 -0.00 -0.01 -0.01 -0.01 -0.05 0.00 0.00 0.05 0.08 0.09 0.09 0.09 0.17 0.29 0.26 0.26 0.29 0.32 0.37 0.37 0.42 0.59 0.59 0.38 0.30 0.19
-0.05 -0.12 -0.12 -0.19 -0.36 -0.36 -0.31 -0.19 -0.17 -0.17 -0.20 -0.25 -0.23 -0.18 -0.18 -0.15 -0.11 0.01 0.01 -0.01 -0.01 0.02 0.02 0.01 0.04 0.07 0.07 -0.02 -0.06 -0.06 -0.10 -0.13 -0.19 -0.19 -0.19 -0.13 -0.06 -0.02 -0.02 -0.01 0.02 0.00 0.00 -0.01 -0.01 -0.01 0.01 0.02 0.03 0.03 0.07 0.09 0.12 0.14 0.14 0.24 0.28 0.26 0.26 0.29 0.34 0.37 0.37 0.41 0.39 0.39 0.23 0.19 0.13
-0.05 -0.14 -0.14 -0.27 -0.47 -0.47 -0.30 -0.17 -0.18 -0.18 -0.19 -0.23 -0.17 -0.14 -0.14 -0.14 -0.10 0.03 0.03 -0.01 -0.01 0.03 0.03 0.02 0.06 -0.01 -0.01 -0.08 -0.09 -0.09 -0.13 -0.19 -0.26 -0.22 -0.22 -0.10 -0.05 -0.03 -0.03 0.01 0.05 0.01 0.01 0.01 0.04 0.04 0.08 0.09 0.14 0.14 0.14 0.16 0.20 0.23 0.23 0.30 0.33 0.29 0.29 0.31 0.36 0.38 0.38 0.37 0.32 0.32 0.21 0.12 0.08
-0.06 -0.20 -0.20 -0.37 -0.54 -0.54 -0.26 -0.17 -0.19 -0.19 -0.18 -0.19 -0.12 -0.12 -0.12 -0.13 -0.08 0.02 0.02 -0.03 -0.01 0.04 0.04 0.04 0.12 -0.09 -0.09 -0.18 -0.17 -0.17 -0.22 -0.27 -0.31 -0.15 -0.15 -0.08 -0.06 -0.04 -0.04 -0.01 0.01 0.01 0.01 0.04 0.08 0.08 0.13 0.16 0.21 0.21 0.23 0.26 0.27 0.35 0.35 0.34 0.34 0.33 0.33 0.34 0.38 0.39 0.39 0.32 0.25 0.25 0.14 0.12 0.05
-0.03 -0.23 -0.23 -0.43 -0.53 -0.53 -0.23 -0.16 -0.18 -0.18 -0.16 -0.14 -0.08 -0.08 -0.08 -0.09 -0.04 -0.02 -0.02 -0.03 -0.01 0.05 0.05 0.09 0.13 -0.14 -0.14 -0.25 -0.31 -0.31 -0.28 -0.33 -0.31 -0.22 -0.22 -0.06 -0.07 -0.06 -0.06 -0.05 -0.03 -0.01 -0.01 0.08 0.13 0.13 0.18 0.22 0.24 0.24 0.29 0.30 0.31 0.35 0.35 0.34 0.33 0.32 0.32 0.33 0.40 0.33 0.33 0.21 0.09 0.09 0.08 0.07 0.05
-0.05 -0.31 -0.31 -0.58 -0.45 -0.45 -0.18 -0.15 -0.14 -0.14 -0.08 -0.01 0.02 0.02 0.02 0.04 0.05 -0.07 -0.07 -0.03 0.08 0.14 0.14 0.14 -0.04 -0.11 -0.11 -0.36 -0.46 -0.46 -0.35 -0.29 -0.22 -0.14 -0.14 -0.14 -0.14 -0.15 -0.15 -0.10 -0.03 0.02 0.02 0.06 0.22 0.22 0.24 0.25 0.27 0.27 0.34 0.33 0.28 0.27 0.27 0.29 0.29 0.29 0.29 0.29 0.25 0.13 0.13 0.06 0.02 0.02 0.02 0.01 0.00
-0.05 -0.34 -0.34 -0.59 -0.40 -0.40 -0.16 -0.13 -0.09 -0.09 -0.02 0.08 0.12 0.07 0.07 0.12 -0.00 -0.06 -0.06 0.02 0.18 0.17 0.17 0.03 -0.08 -0.17 -0.17 -0.33 -0.42 -0.42 -0.38 -0.29 -0.20 -0.17 -0.17 -0.16 -0.23 -0.14 -0.14 -0.05 0.02 0.05 0.05 0.12 0.24 0.24 0.25 0.28 0.30 0.30 0.35 0.35 0.30 0.24 0.24 0.25 0.26 0.23 0.23 0.17 0.09 0.03 0.03 0.01 0.00 0.00 0.00 0.00 0.00
-0.06 -0.40 -0.40 -0.56 -0.30 -0.30 -0.11 -0.07 -0.02 -0.02 0.07 0.19 0.25 0.14 0.14 0.11 -0.07 0.01 0.01 0.13 0.23 0.09 0.09 -0.07 -0.11 -0.20 -0.20 -0.31 -0.44 -0.44 -0.40 -0.29 -0.24 -0.21 -0.21 -0.40 -0.30 -0.17 -0.17 -0.04 0.05 0.12 0.12 0.23 0.28 0.28 0.31 0.32 0.33 0.33 0.36 0.37 0.31 0.23 0.23 0.20 0.18 0.12 0.12 0.06 0.01 0.00 0.00 0.00 0.00 0.00 0.00 0.00 0.00
-0.14 -0.48 -0.48 -0.48 -0.14 -0.14 0.04 0.12 0.11 0.11 0.16 0.30 0.33 0.17 0.17 -0.00 -0.06 0.01 0.01 0.22 0.17 -0.04 -0.04 -0.16 -0.18 -0.18 -0.18 -0.24 -0.49 -0.49 -0.46 -0.36 -0.30 -0.35 -0.35 -0.56 -0.53 -0.17 -0.17 0.02 0.10 0.19 0.19 0.26 0.31 0.31 0.38 0.35 0.37 0.37 0.38 0.33 0.31 0.21 0.21 0.14 0.09 0.05 0.05 0.01 0.00 0.00 0.00 0.00 0.00 0.00 0.00 0.00 0.00
-0.14 -0.41 -0.41 -0.29 0.11 0.11 0.24 0.24 0.16 0.16 0.27 0.43 0.33 0.03 0.03 -0.05 -0.00 0.09 0.09 0.20 0.00 -0.18 -0.18 -0.25 -0.24 -0.23 -0.23 -0.25 -0.49 -0.49 -0.49 -0.47 -0.42 -0.64 -0.64 -0.66 -0.61 -0.16 -0.16 0.03 0.16 0.24 0.24 0.29 0.36 0.36 0.41 0.36 0.36 0.36 0.35 0.28 0.27 0.19 0.19 0.10 0.07 0.02 0.02 0.01 0.00 0.00 0.00 0.00 0.00 0.00 0.00 0.00 0.00
-0.08 -0.32 -0.32 -0.16 0.20 0.20 0.27 0.27 0.32 0.32 0.41 0.39 0.12 -0.05 -0.05 -0.03 0.03 0.15 0.15 0.00 -0.15 -0.23 -0.23 -0.29 -0.34 -0.33 -0.33 -0.32 -0.48 -0.48 -0.55 -0.62 -0.70 -0.69 -0.69 -0.67 -0.55 -0.34 -0.34 0.10 0.21 0.26 0.26 0.34 0.40 0.40 0.40 0.37 0.32 0.32 0.25 0.23 0.20 0.15 0.15 0.09 0.05 0.03 0.03 0.00 0.00 0.00 0.00 0.00 0.00 0.00 0.00 0.00 0.00
-0.07 -0.28 -0.28 -0.03 0.25 0.25 0.33 0.35 0.41 0.41 0.38 0.18 -0.01 -0.04 -0.04 -0.01 0.05 0.12 0.12 -0.13 -0.21 -0.28 -0.28 -0.34 -0.39 -0.43 -0.43 -0.40 -0.52 -0.52 -0.62 -0.67 -0.67 -0.59 -0.59 -0.52 -0.35 -0.19 -0.19 0.14 0.25 0.30 0.30 0.33 0.38 0.38 0.37 0.34 0.30 0.30 0.21 0.18 0.16 0.14 0.14 0.08 0.05 0.02 0.02 0.01 0.00 0.00 0.00 0.00 0.00 0.00 0.00 0.00 0.00
-0.09 -0.23 -0.23 0.06 0.31 0.31 0.45 0.38 0.35 0.35 0.17 0.02 -0.03 -0.03 -0.03 0.01 0.04 -0.01 -0.01 -0.20 -0.24 -0.28 -0.28 -0.35 -0.38 -0.49 -0.49 -0.54 -0.55 -0.55 -0.58 -0.54 -0.47 -0.39 -0.39 -0.24 -0.11 -0.10 -0.10 -0.01 0.26 0.30 0.30 0.35 0.41 0.41 0.37 0.30 0.25 0.25 0.19 0.13 0.12 0.11 0.11 0.06 0.03 0.01 0.01 0.00 0.00 0.00 0.00 0.00 0.00 0.00 0.00 0.00 0.00
-0.08 -0.22 -0.22 0.18 0.44 0.44 0.53 0.37 0.15 0.15 0.02 0.00 0.01 0.01 0.01 -0.01 -0.02 -0.05 -0.05 -0.17 -0.22 -0.26 -0.26 -0.32 -0.40 -0.50 -0.50 -0.65 -0.71 -0.71 -0.46 -0.40 -0.25 -0.14 -0.14 -0.01 0.00 -0.05 -0.05 -0.01 0.29 0.34 0.34 0.36 0.40 0.40 0.36 0.29 0.19 0.19 0.14 0.10 0.09 0.08 0.08 0.05 0.02 0.01 0.01 0.01 0.00 0.00 0.00 0.00 0.00 0.00 0.00 0.00 0.00
0.02 0.03 0.03 0.40 0.52 0.52 0.43 0.18 0.03 0.03 0.03 0.04 0.04 -0.01 -0.01 -0.02 -0.03 -0.04 -0.04 -0.12 -0.21 -0.25 -0.25 -0.31 -0.41 -0.49 -0.49 -0.66 -0.72 -0.72 -0.40 -0.21 -0.09 0.03 0.03 0.05 -0.00 -0.03 -0.03 0.06 0.23 0.35 0.35 0.35 0.38 0.38 0.30 0.24 0.12 0.12 0.09 0.08 0.06 0.06 0.06 0.05 0.02 0.01 0.01 0.00 0.00 0.00 0.00 0.00 0.00 0.00 0.00 0.00 0.00
0.05 0.12 0.12 0.37 0.41 0.41 0.10 -0.04 0.02 0.02 0.05 0.03 0.01 -0.00 -0.00 -0.02 -0.01 -0.01 -0.01 -0.04 -0.17 -0.25 -0.25 -0.32 -0.39 -0.54 -0.54 -0.66 -0.53 -0.53 -0.25 -0.07 -0.01 0.04 0.04 0.06 -0.00 0.02 0.02 0.18 0.29 0.35 0.35 0.30 0.29 0.29 0.21 0.10 0.07 0.07 0.06 0.04 0.03 0.05 0.05 0.04 0.03 0.01 0.01 0.00 0.01 0.00 0.00 0.00 0.00 0.00 0.00 0.00 0.00
-0.08 0.05 0.05 0.20 0.05 0.05 -0.09 -0.08 -0.02 -0.02 -0.01 0.01 0.01 0.01 0.01 -0.02 -0.03 -0.02 -0.02 -0.06 -0.18 -0.24 -0.24 -0.33 -0.39 -0.53 -0.53 -0.54 -0.33 -0.33 -0.18 -0.01 0.02 0.02 0.02 0.05 0.07 0.13 0.13 0.24 0.30 0.33 0.33 0.23 0.23 0.23 0.17 0.08 0.05 0.05 0.04 0.02 0.02 0.02 0.02 0.05 0.04 0.02 0.02 0.01 0.02 0.01 0.01 0.00 0.00 0.00 0.00 0.00 0.00
-0.04 0.00 0.00 0.03 -0.09 -0.09 -0.11 -0.08 -0.04 -0.04 -0.03 -0.01 0.02 -0.01 -0.01 -0.04 -0.07 -0.06 -0.06 -0.10 -0.19 -0.30 -0.30 -0.31 -0.37 -0.43 -0.43 -0.35 -0.23 -0.23 -0.17 -0.04 0.09 0.05 0.05 0.07 0.13 0.19 0.19 0.25 0.27 0.29 0.29 0.24 0.19 0.19 0.12 0.07 0.04 0.04 0.03 0.01 0.01 0.02 0.02 0.04 0.05 0.03 0.03 0.05 0.05 0.04 0.04 0.02 0.01 0.01 0.00 0.00 0.00
-0.04 -0.04 -0.04 -0.04 -0.06 -0.06 -0.07 -0.11 -0.04 -0.04 -0.03 -0.03 -0.03 -0.05 -0.05 -0.09 -0.10 -0.14 -0.14 -0.26 -0.37 -0.43 -0.43 -0.39 -0.35 -0.27 -0.27 -0.23 -0.20 -0.20 -0.16 -0.01 0.14 0.11 0.11 0.10 0.13 0.19 0.19 0.21 0.23 0.23 0.23 0.23 0.19 0.19 0.11 0.07 0.03 0.03 0.02 0.01 0.01 0.01 0.01 0.02 0.05 0.05 0.05 0.08 0.08 0.07 0.07 0.06 0.05 0.05 0.03 0.01 0.00
-0.07 -0.06 -0.06 -0.06 -0.07 -0.07 -0.09 -0.09 -0.06 -0.06 -0.05 -0.05 -0.07 -0.10 -0.10 -0.15 -0.15 -0.19 -0.19 -0.35 -0.50 -0.57 -0.57 -0.46 -0.24 -0.12 -0.12 -0.13 -0.15 -0.15 -0.10 0.01 0.12 0.11 0.11 0.09 0.11 0.18 0.18 0.20 0.19 0.20 0.20 0.21 0.16 0.16 0.13 0.07 0.03 0.03 0.01 0.01 -0.00 0.02 0.02 0.03 0.05 0.06 0.06 0.13 0.17 0.13 0.13 0.08 0.06 0.06 0.05 0.04 0.05
-0.10 -0.10 -0.10 -0.10 -0.09 -0.09 -0.09 -0.08 -0.08 -0.08 -0.10 -0.11 -0.15 -0.17 -0.17 -0.16 -0.16 -0.29 -0.29 -0.49 -0.56 -0.47 -0.47 -0.31 -0.11 -0.03 -0.03 -0.03 -0.05 -0.05 -0.03 0.02 0.12 0.07 0.07 0.07 0.11 0.17 0.17 0.22 0.16 0.16 0.16 0.20 0.21 0.21 0.18 0.07 0.02 0.02 0.00 -0.00 0.01 0.05 0.05 0.06 0.09 0.28 0.28 0.30 0.28 0.22 0.22 0.19 0.20 0.20 0.13 0.07 0.05
-0.12 -0.14 -0.14 -0.12 -0.09 -0.09 -0.07 -0.08 -0.10 -0.10 -0.12 -0.15 -0.21 -0.20 -0.20 -0.17 -0.21 -0.38 -0.38 -0.56 -0.59 -0.33 -0.33 -0.14 -0.02 0.03 0.03 0.04 0.03 0.03 0.03 0.05 0.10 0.07 0.07 0.07 0.13 0.20 0.20 0.23 0.12 0.15 0.15 0.23 0.21 0.21 0.23 0.20 0.01 0.01 0.02 0.03 0.06 0.09 0.09 0.16 0.20 0.38 0.38 0.36 0.26 0.15 0.15 0.08 0.09 0.09 0.09 0.10 0.00
-0.13 -0.13 -0.13 -0.12 -0.08 -0.08 -0.06 -0.07 -0.10 -0.10 -0.13 -0.19 -0.21 -0.20 -0.20 -0.23 -0.30 -0.44 -0.44 -0.54 -0.49 -0.16 -0.16 -0.05 0.04 0.05 0.05 0.05 0.04 0.04 0.05 0.06 0.07 0.06 0.06 0.06 0.14 0.25 0.25 0.18 0.11 0.19 0.19 0.24 0.21 0.21 0.27 0.20 0.05 0.05 0.05 0.08 0.12 0.18 0.18 0.26 0.34 0.29 0.29 0.21 0.12 0.07 0.07 0.05 0.04 0.04 0.01 0.01 0.00
-0.13 -0.13 -0.13 -0.12 -0.08 -0.08 -0.05 -0.05 -0.10 -0.10 -0.16 -0.19 -0.19 -0.23 -0.23 -0.31 -0.40 -0.47 -0.47 -0.46 -0.34 -0.08 -0.08 0.00 0.03 0.04 0.04 0.03 0.03 0.03 0.04 0.06 0.06 0.06 0.06 0.06 0.22 0.24 0.24 0.13 0.10 0.17 0.17 0.21 0.18 0.18 0.20 0.13 0.07 0.07 0.07 0.17 0.23 0.29 0.29 0.36 0.22 0.16 0.16 0.11 0.07 0.05 0.05 0.03 0.01 0.01 0.00 0.00 0.00
-0.14 -0.12 -0.12 -0.09 -0.07 -0.07 -0.07 -0.09 -0.12 -0.12 -0.19 -0.17 -0.18 -0.27 -0.27 -0.39 -0.43 -0.44 -0.44 -0.30 -0.16 -0.06 -0.06 0.02 0.03 0.03 0.03 0.02 0.04 0.04 0.06 0.06 0.07 0.07 0.07 0.08 0.16 0.17 0.17 0.05 0.10 0.18 0.18 0.20 0.16 0.16 0.13 0.11 0.11 0.11 0.13 0.17 0.22 0.29 0.29 0.26 0.13 0.09 0.09 0.05 0.02 0.01 0.01 0.01 0.00 0.00 0.00 0.00 0.00
-0.16 -0.13 -0.13 -0.10 -0.08 -0.08 -0.09 -0.09 -0.12 -0.12 -0.16 -0.17 -0.23 -0.36 -0.36 -0.41 -0.39 -0.26 -0.26 -0.10 -0.04 0.01 0.01 0.03 0.03 0.03 0.03 0.03 0.05 0.05 0.08 0.09 0.08 0.06 0.06 0.10 0.21 0.23 0.23 0.03 0.11 0.16 0.16 0.14 0.13 0.13 0.15 0.13 0.10 0.10 0.12 0.16 0.19 0.21 0.21 0.08 0.05 0.03 0.03 0.02 0.01 0.01 0.01 0.00 0.00 0.00 0.00 0.00 0.00
-0.17 -0.17 -0.17 -0.15 -0.13 -0.13 -0.10 -0.11 -0.15 -0.15 -0.19 -0.22 -0.37 -0.46 -0.46 -0.36 -0.15 -0.02 -0.02 0.02 0.03 0.03 0.03 0.03 0.03 0.03 0.03 0.04 0.08 0.08 0.11 0.12 0.06 0.03 0.03 0.11 0.23 0.24 0.24 0.15 0.13 0.16 0.16 0.15 0.14 0.14 0.13 0.11 0.12 0.12 0.11 0.14 0.17 0.16 0.16 0.07 0.02 0.02 0.02 0.01 0.01 0.00 0.00 0.00 0.00 0.00 0.00 0.00 0.00
-0.18 -0.18 -0.18 -0.18 -0.17 -0.17 -0.13 -0.17 -0.25 -0.25 -0.31 -0.41 -0.52 -0.38 -0.38 -0.12 0.04 0.06 0.06 0.05 0.03 0.02 0.02 0.03 0.04 0.05 0.05 0.07 0.12 0.12 0.15 0.12 0.06 0.06 0.06 0.17 0.27 0.29 0.29 0.17 0.20 0.24 0.24 0.19 0.16 0.16 0.15 0.12 0.10 0.10 0.10 0.13 0.15 0.14 0.14 0.04 0.02 0.02 0.02 0.00 0.00 0.00 0.00 0.00 0.00 0.00 0.00 0.00 0.00
-0.15 -0.22 -0.22 -0.22 -0.20 -0.20 -0.19 -0.31 -0.43 -0.43 -0.51 -0.54 -0.33 -0.09 -0.09 0.04 0.06 0.05 0.05 0.04 0.03 0.02 0.02 0.03 0.05 0.08 0.08 0.14 0.22 0.22 0.17 0.13 0.12 0.16 0.16 0.29 0.34 0.32 0.32 0.15 0.09 0.24 0.24 0.22 0.17 0.17 0.12 0.09 0.08 0.08 0.09 0.10 0.11 0.06 0.06 0.03 0.02 0.01 0.01 0.00 0.00 0.00 0.00 0.00 0.00 0.00 0.00 0.00 0.00